PBO Station Position Time Series. Reference Frame : NAM14
Format Version,1.1.0
4-character ID,BIL6
Station name,Billings_6
Begin Date, 2006-10-19
End Date, 2016-07-19
Release Date, 2021-02-19
Reference position, 45.9711868502 North Latitude, -107.9968200243 East Longitude, 874.62448 meters elevation,
Date, North (mm), East (mm), Vertical (mm), North Std. Deviation (mm), East Std. Deviation (mm),              Vertical Std. Deviation (mm), Quality,
2006-10-19,0.00, 0.00, 0.00, 4.52, 3.62, 14.98, repro,
2006-10-20,-2.27, -0.68, 6.78, 2.41, 1.81, 8.05, repro,
2006-10-21,-0.73, -1.16, -0.87, 2.24, 1.64, 7.28, repro,
2006-10-22,-0.26, -0.29, -0.27, 2.23, 1.66, 7.31, repro,
2006-10-23,-0.67, -0.11, -0.82, 2.26, 1.66, 7.35, repro,
2006-10-24,0.42, -0.35, -2.30, 2.25, 1.69, 7.43, repro,
2006-10-25,-1.62, -0.83, 10.95, 2.36, 1.74, 7.62, repro,
2006-10-26,-0.28, -2.13, -0.80, 2.29, 1.76, 7.59, repro,
2006-10-27,-1.73, -0.60, 0.37, 2.24, 1.71, 7.41, repro,
2006-10-28,-1.54, -0.56, -2.67, 2.29, 1.69, 7.51, repro,
2006-10-29,0.19, -1.76, 2.67, 2.18, 1.62, 7.22, repro,
2006-10-30,-0.14, -1.10, 1.64, 2.13, 1.57, 6.94, repro,
2006-10-31,-0.22, -1.67, 2.90, 2.16, 1.61, 7.12, repro,
2006-11-01,0.27, -1.55, -3.57, 2.19, 1.66, 7.27, repro,
2006-11-02,-2.10, 0.24, -0.68, 2.17, 1.61, 7.15, repro,
2006-11-03,-2.99, 0.03, -2.91, 2.19, 1.61, 7.18, repro,
2006-11-04,-1.80, -0.41, -2.10, 2.30, 1.71, 7.58, repro,
2006-11-05,-1.93, 0.65, 1.38, 2.22, 1.65, 7.32, repro,
2006-11-06,-1.67, -1.63, -5.15, 2.12, 1.58, 7.01, repro,
2006-11-07,-1.04, 0.10, 2.24, 2.30, 1.71, 7.39, repro,
2006-11-08,-3.07, -0.53, 6.30, 2.18, 1.61, 7.17, repro,
2006-11-09,-1.87, -0.36, 4.33, 2.24, 1.68, 7.36, repro,
2006-11-10,-0.82, 0.10, -4.27, 2.20, 1.59, 7.08, repro,
2006-11-11,-0.56, 0.47, -2.83, 2.17, 1.62, 7.22, repro,
2006-11-12,0.35, -0.79, -2.74, 2.26, 1.68, 7.51, repro,
2006-11-13,-3.22, 0.82, 9.62, 2.24, 1.63, 7.26, repro,
2006-11-14,-2.47, -0.21, 1.03, 2.17, 1.57, 7.15, repro,
2006-11-15,-0.88, -0.53, 2.27, 2.20, 1.58, 7.25, repro,
2006-11-16,-1.80, -0.24, 4.05, 2.18, 1.58, 7.28, repro,
2006-11-17,-0.46, -1.41, 0.98, 2.14, 1.56, 7.02, repro,
2006-11-18,-1.62, -1.61, -1.67, 2.15, 1.57, 7.09, repro,
2006-11-19,-2.29, 0.44, -1.25, 2.15, 1.58, 7.15, repro,
2006-11-20,-1.23, -1.62, -2.08, 2.22, 1.62, 7.38, repro,
2006-11-21,-3.25, -1.02, 4.17, 2.16, 1.57, 7.13, repro,
2006-11-22,-0.56, -0.06, 1.26, 2.15, 1.58, 7.14, repro,
2006-11-23,-1.85, -1.29, -1.79, 2.17, 1.60, 7.19, repro,
2006-11-24,-2.04, 1.09, 2.07, 2.18, 1.61, 7.20, repro,
2006-11-25,-0.66, -0.64, -1.94, 2.09, 1.54, 6.83, repro,
2006-11-26,-1.93, 0.29, -0.14, 2.13, 1.54, 6.93, repro,
2006-11-27,-1.28, 0.33, 0.43, 2.22, 1.60, 7.24, repro,
2006-11-28,-0.18, -1.11, 2.14, 2.12, 1.55, 6.96, repro,
2006-11-29,-1.43, -1.43, -3.74, 2.18, 1.60, 7.16, repro,
2006-11-30,-2.56, -0.56, -4.52, 2.08, 1.55, 6.86, repro,
2006-12-01,-2.41, -0.18, -3.32, 2.19, 1.58, 7.14, repro,
2006-12-02,-0.94, -0.48, -10.43, 2.17, 1.58, 7.09, repro,
2006-12-03,-2.01, -1.23, -8.76, 2.17, 1.58, 7.12, repro,
2006-12-04,-1.67, -0.92, -9.36, 2.14, 1.57, 7.11, repro,
2006-12-05,-1.38, -1.53, -6.58, 2.18, 1.62, 7.27, repro,
2006-12-06,-1.96, -2.02, -3.45, 2.24, 1.65, 7.49, repro,
2006-12-07,-2.14, -0.30, -6.09, 2.21, 1.58, 7.24, repro,
2006-12-08,-1.94, -0.94, -7.89, 2.25, 1.63, 7.41, repro,
2006-12-09,-1.79, -0.22, 6.52, 2.24, 1.63, 7.41, repro,
2006-12-10,-0.77, -1.45, -2.85, 2.24, 1.61, 7.26, repro,
2006-12-11,-1.74, -0.80, 1.76, 2.19, 1.58, 7.13, repro,
2006-12-12,-4.30, -0.73, 9.28, 2.20, 1.59, 7.23, repro,
2006-12-13,-2.97, 0.03, 5.62, 2.20, 1.59, 7.24, repro,
2006-12-14,-0.49, -1.39, 8.07, 2.20, 1.64, 7.34, repro,
2006-12-15,1.54, -1.11, 1.28, 2.33, 1.73, 7.77, repro,
2006-12-16,-1.03, -1.58, -3.49, 2.27, 1.68, 7.47, repro,
2006-12-17,1.47, -2.37, 2.51, 2.30, 1.68, 7.76, repro,
2006-12-18,0.26, -2.99, 2.85, 2.39, 1.74, 8.16, repro,
2006-12-19,1.35, -2.09, -4.80, 2.30, 1.68, 7.66, repro,
2006-12-20,0.35, -1.68, -3.85, 2.25, 1.64, 7.44, repro,
2006-12-21,1.08, -1.90, -6.34, 2.25, 1.67, 7.51, repro,
2006-12-22,0.57, -2.43, -0.97, 2.39, 1.77, 7.91, repro,
2006-12-23,0.69, -2.56, 3.19, 2.31, 1.67, 7.71, repro,
2006-12-24,0.31, -1.16, -0.88, 2.21, 1.60, 7.26, repro,
2006-12-25,-0.93, -0.37, -6.19, 2.28, 1.65, 7.51, repro,
2006-12-26,0.44, -2.73, -6.25, 2.26, 1.64, 7.45, repro,
2006-12-27,0.72, -1.47, 4.03, 2.29, 1.69, 7.67, repro,
2006-12-28,1.65, -1.95, 2.92, 2.42, 1.77, 8.12, repro,
2006-12-29,1.52, -0.36, -9.26, 2.35, 1.78, 8.04, repro,
2006-12-30,2.66, -1.39, -5.50, 2.29, 1.68, 7.60, repro,
2006-12-31,2.55, -3.06, -11.81, 2.50, 1.84, 8.43, repro,
2007-01-04,-4.95, 0.67, -3.88, 13.03, 7.51, 41.58, repro,
2007-01-05,1.43, -2.97, -4.92, 2.20, 1.65, 7.31, repro,
2007-01-06,-1.27, -1.99, 1.29, 2.21, 1.66, 7.39, repro,
2007-01-07,0.78, -3.42, -5.88, 2.21, 1.63, 7.22, repro,
2007-01-08,1.05, -2.06, -6.13, 2.32, 1.70, 7.58, repro,
2007-01-09,0.79, -1.08, -11.08, 2.32, 1.67, 7.36, repro,
2007-01-10,-1.48, -1.10, -5.78, 2.21, 1.63, 7.28, repro,
2007-01-11,-1.62, -2.56, -4.13, 2.26, 1.65, 7.38, repro,
2007-01-12,0.13, -3.06, -14.54, 2.17, 1.58, 7.08, repro,
2007-01-13,-0.19, -1.91, -9.02, 2.10, 1.57, 6.96, repro,
2007-01-14,1.04, -1.51, -17.06, 2.21, 1.61, 7.15, repro,
2007-01-15,-0.87, -1.34, -17.80, 2.20, 1.61, 7.14, repro,
2007-01-16,-1.75, -2.33, -15.46, 2.17, 1.57, 7.07, repro,
2007-01-17,-2.64, -3.15, -12.33, 2.15, 1.57, 6.99, repro,
2007-01-18,0.21, -2.45, -15.18, 2.19, 1.62, 7.17, repro,
2007-01-19,0.90, -1.66, -14.26, 2.32, 1.70, 7.55, repro,
2007-01-20,-0.36, -0.75, -11.52, 2.28, 1.65, 7.38, repro,
2007-01-21,0.36, -3.02, -9.91, 2.14, 1.57, 6.97, repro,
2007-01-22,-1.17, -2.89, -6.85, 2.24, 1.62, 7.25, repro,
2007-01-23,0.87, -3.59, -9.09, 2.18, 1.60, 7.11, repro,
2007-01-24,0.86, -1.84, -12.94, 2.23, 1.61, 7.20, repro,
2007-01-25,0.16, -1.65, -13.41, 2.22, 1.61, 7.28, repro,
2007-01-26,2.33, -3.01, -18.26, 2.15, 1.58, 6.99, repro,
2007-01-27,2.04, -2.38, -12.97, 2.19, 1.61, 7.13, repro,
2007-01-28,0.48, -2.66, -8.79, 2.30, 1.68, 7.44, repro,
2007-01-29,2.44, -2.59, -13.88, 2.18, 1.58, 7.09, repro,
2007-01-30,0.12, -2.19, -11.52, 2.12, 1.54, 6.90, repro,
2007-01-31,2.14, -1.87, -3.80, 2.11, 1.55, 6.87, repro,
2007-02-01,1.16, -3.36, -10.56, 2.19, 1.64, 7.24, repro,
2007-02-02,-0.10, -2.69, -6.20, 2.26, 1.62, 7.36, repro,
2007-02-03,0.00, -1.94, -4.53, 2.28, 1.61, 7.32, repro,
2007-02-04,1.37, -2.05, -9.57, 2.24, 1.62, 7.30, repro,
2007-02-05,2.83, -1.99, -18.49, 2.18, 1.59, 7.13, repro,
2007-02-06,1.29, -2.39, -14.37, 2.23, 1.60, 7.21, repro,
2007-02-07,2.15, -2.33, -17.48, 2.23, 1.60, 7.23, repro,
2007-02-08,1.57, -1.42, -14.54, 2.28, 1.64, 7.37, repro,
2007-02-09,1.71, -1.00, -13.80, 2.24, 1.61, 7.25, repro,
2007-02-10,1.81, -1.43, -11.05, 2.11, 1.53, 6.85, repro,
2007-02-11,2.68, -1.73, -4.98, 2.16, 1.57, 7.02, repro,
2007-02-12,1.24, -2.27, -1.32, 6.85, 5.29, 21.58, repro,
2007-02-13,2.46, -0.01, -21.68, 2.91, 2.05, 9.19, repro,
2007-02-14,1.49, -1.83, -16.44, 2.17, 1.55, 6.97, repro,
2007-02-15,0.12, -1.89, -10.47, 2.23, 1.58, 7.17, repro,
2007-02-16,2.49, -3.08, -5.55, 2.23, 1.59, 7.20, repro,
2007-02-17,2.20, -2.20, -13.90, 2.25, 1.62, 7.31, repro,
2007-02-18,-0.04, -1.61, -7.88, 2.19, 1.57, 7.06, repro,
2007-02-19,-0.43, -2.19, -4.17, 2.24, 1.59, 7.17, repro,
2007-02-20,-0.93, -2.05, -2.89, 2.18, 1.58, 7.04, repro,
2007-02-21,0.84, -1.08, 0.68, 2.17, 1.56, 7.01, repro,
2007-02-22,2.94, -1.07, -11.39, 2.24, 1.62, 7.22, repro,
2007-02-23,2.36, -1.98, -2.62, 2.23, 1.60, 7.13, repro,
2007-02-24,-0.13, -2.03, -8.61, 2.16, 1.56, 6.96, repro,
2007-02-25,2.52, -2.95, -9.03, 2.12, 1.54, 6.90, repro,
2007-02-26,1.76, -1.65, -6.52, 2.19, 1.60, 7.10, repro,
2007-02-27,3.84, -0.56, 0.76, 2.19, 1.57, 7.03, repro,
2007-02-28,1.63, -1.50, -4.70, 2.18, 1.57, 7.00, repro,
2007-03-01,-0.80, -1.68, -3.84, 2.30, 1.67, 7.42, repro,
2007-03-02,1.00, -3.26, -10.30, 2.14, 1.59, 7.07, repro,
2007-03-03,0.36, -2.65, -13.15, 2.19, 1.60, 7.17, repro,
2007-03-04,1.96, -3.21, -17.47, 2.20, 1.59, 7.15, repro,
2007-03-05,2.63, -2.51, -14.30, 2.22, 1.60, 7.16, repro,
2007-03-06,1.77, -2.04, -15.09, 2.21, 1.61, 7.16, repro,
2007-03-07,0.06, -2.55, -10.53, 2.22, 1.61, 7.21, repro,
2007-03-08,-0.08, -2.20, -4.53, 2.17, 1.58, 7.08, repro,
2007-03-09,1.39, -2.86, -11.08, 2.18, 1.56, 7.02, repro,
2007-03-10,2.36, -2.57, -7.10, 2.25, 1.60, 7.21, repro,
2007-03-11,0.97, -1.79, -8.63, 2.24, 1.59, 7.19, repro,
2007-03-12,-1.77, -2.20, -14.46, 2.21, 1.60, 7.21, repro,
2007-03-13,1.79, -3.00, -9.07, 2.16, 1.55, 6.96, repro,
2007-03-14,2.42, -3.31, -11.62, 2.17, 1.56, 6.96, repro,
2007-03-15,2.71, -1.75, -9.49, 2.21, 1.58, 7.08, repro,
2007-03-16,1.73, -1.93, -14.38, 2.21, 1.59, 7.15, repro,
2007-03-17,1.32, -1.60, -12.21, 2.18, 1.56, 7.01, repro,
2007-03-18,0.33, -2.68, -11.17, 2.16, 1.55, 6.92, repro,
2007-03-19,2.38, -2.84, -12.55, 2.17, 1.55, 6.93, repro,
2007-03-20,-0.06, -1.91, -0.74, 2.25, 1.58, 7.04, repro,
2007-03-21,1.53, -2.67, 2.86, 2.35, 1.66, 7.42, repro,
2007-03-22,0.30, -3.12, -0.51, 2.22, 1.58, 7.15, repro,
2007-03-23,1.60, -2.61, -8.67, 2.24, 1.63, 7.30, repro,
2007-03-24,1.10, -2.07, -7.90, 2.19, 1.56, 6.99, repro,
2007-03-25,1.76, -2.67, -8.23, 2.20, 1.54, 6.98, repro,
2007-03-26,-6.02, -0.69, -10.59, 8.25, 6.50, 27.68, repro,
2007-03-27,0.61, -2.38, -3.76, 2.24, 1.56, 7.10, repro,
2007-03-28,-1.97, -4.47, -4.94, 9.42, 5.65, 28.61, repro,
2007-03-29,2.39, -3.28, -19.22, 2.21, 1.60, 7.21, repro,
2007-03-30,1.90, -2.79, -22.69, 2.17, 1.54, 6.91, repro,
2007-03-31,0.72, -2.14, -5.52, 2.16, 1.54, 6.91, repro,
2007-04-01,1.09, -2.94, -5.06, 2.21, 1.59, 7.18, repro,
2007-04-02,-0.14, -1.26, -0.61, 2.18, 1.55, 7.00, repro,
2007-04-03,2.17, -2.48, -16.03, 2.21, 1.59, 7.21, repro,
2007-04-04,3.15, -1.02, -18.13, 2.22, 1.59, 7.15, repro,
2007-04-05,3.73, -1.86, -21.06, 2.29, 1.60, 7.23, repro,
2007-04-06,1.97, -1.56, -20.50, 2.28, 1.59, 7.22, repro,
2007-04-07,1.28, -1.62, -7.20, 2.24, 1.59, 7.14, repro,
2007-04-08,1.05, -2.27, -8.09, 2.19, 1.55, 6.99, repro,
2007-04-09,0.50, -0.73, 0.13, 2.15, 1.53, 6.90, repro,
2007-04-10,1.39, -1.70, -7.29, 2.22, 1.59, 7.19, repro,
2007-04-11,2.63, -3.57, -7.29, 2.20, 1.57, 7.05, repro,
2007-04-12,0.46, -1.60, -3.15, 2.23, 1.58, 7.05, repro,
2007-04-13,1.84, -1.87, -9.86, 2.17, 1.54, 6.91, repro,
2007-04-14,-0.79, -2.02, -7.88, 2.24, 1.59, 7.21, repro,
2007-04-15,0.95, -1.87, -5.71, 2.18, 1.57, 7.01, repro,
2007-04-16,0.99, -3.30, -11.28, 2.19, 1.56, 7.00, repro,
2007-04-17,1.05, -1.48, -4.91, 2.17, 1.53, 6.90, repro,
2007-04-18,1.24, -2.17, -0.61, 2.21, 1.56, 7.07, repro,
2007-04-19,-0.28, -2.53, -5.36, 2.19, 1.56, 7.01, repro,
2007-04-20,0.67, -2.32, -8.15, 2.15, 1.53, 6.88, repro,
2007-04-21,0.58, -4.13, -13.41, 3.23, 2.55, 11.53, repro,
2007-04-22,0.09, -4.65, -8.99, 3.12, 2.39, 10.43, repro,
2007-04-23,-0.19, -1.89, -5.06, 2.21, 1.55, 6.96, repro,
2007-04-24,0.68, -1.87, -8.05, 2.19, 1.55, 6.95, repro,
2007-04-25,0.35, -1.93, -7.93, 2.17, 1.56, 6.93, repro,
2007-04-26,1.34, -2.40, -11.91, 2.21, 1.56, 7.02, repro,
2007-04-27,0.39, -2.71, -11.06, 2.26, 1.60, 7.20, repro,
2007-04-28,0.39, -2.60, -9.90, 2.24, 1.58, 7.19, repro,
2007-04-29,0.19, -1.86, -11.75, 2.20, 1.55, 6.95, repro,
2007-04-30,-0.30, -1.77, -6.02, 2.24, 1.60, 7.19, repro,
2007-05-01,1.05, -2.00, -12.18, 2.18, 1.56, 7.03, repro,
2007-05-02,0.55, -1.96, -11.76, 2.27, 1.60, 7.24, repro,
2007-05-03,-0.17, -3.29, -1.85, 2.26, 1.59, 7.15, repro,
2007-05-04,-0.53, -1.49, -9.54, 2.21, 1.55, 6.94, repro,
2007-05-05,0.20, -2.16, -7.70, 2.24, 1.62, 7.36, repro,
2007-05-06,-0.93, -2.14, -9.44, 2.17, 1.54, 6.89, repro,
2007-05-07,-0.73, -2.20, -15.61, 2.24, 1.59, 7.24, repro,
2007-05-18,-0.62, -3.37, -21.67, 2.32, 1.68, 7.57, repro,
2007-05-19,1.10, -2.54, -25.03, 2.24, 1.61, 7.11, repro,
2007-05-20,0.14, -1.85, -14.26, 2.20, 1.56, 7.02, repro,
2007-05-21,1.53, -2.29, -5.76, 2.17, 1.54, 6.89, repro,
2007-05-22,0.05, -0.66, -5.70, 2.26, 1.62, 7.24, repro,
2007-05-23,0.22, -2.68, -15.44, 2.19, 1.54, 6.90, repro,
2007-05-24,-1.83, -1.36, -12.96, 5.87, 3.88, 18.12, repro,
2007-05-25,-2.66, -0.81, -10.36, 9.50, 5.97, 26.36, repro,
2007-05-26,0.49, -1.45, -16.64, 2.21, 1.58, 6.98, repro,
2007-05-27,-0.17, -2.27, -13.06, 2.17, 1.54, 6.85, repro,
2007-05-28,-0.91, -1.52, -8.29, 2.26, 1.60, 7.12, repro,
2007-05-29,0.82, -3.10, -17.08, 2.37, 1.72, 7.56, repro,
2007-05-30,0.93, -1.96, -18.79, 2.24, 1.58, 7.05, repro,
2007-06-05,-2.01, -4.51, -14.38, 3.43, 2.60, 11.11, repro,
2007-06-07,-0.70, -3.52, -10.37, 2.30, 1.70, 7.32, repro,
2007-06-08,-2.48, -0.90, -14.10, 2.21, 1.59, 7.06, repro,
2007-06-09,-2.06, -1.42, -18.11, 2.21, 1.58, 7.02, repro,
2007-06-10,-1.29, -1.16, -14.62, 2.30, 1.69, 7.39, repro,
2007-06-11,-1.34, -1.83, -19.12, 2.20, 1.60, 7.12, repro,
2007-06-12,-0.58, -2.81, -14.90, 2.31, 1.69, 7.46, repro,
2007-06-13,0.12, -2.02, -19.74, 2.35, 1.75, 7.76, repro,
2007-06-14,-0.50, -2.80, -32.55, 2.75, 2.10, 9.23, repro,
2007-06-15,1.68, -1.61, -29.34, 2.75, 2.02, 8.91, repro,
2007-06-16,-0.22, -1.29, -24.69, 4.35, 3.40, 14.02, repro,
2007-06-17,-1.85, 0.07, -17.61, 3.62, 2.78, 12.75, repro,
2007-06-18,-1.99, 0.49, -10.11, 4.53, 3.47, 14.95, repro,
2007-06-19,-0.91, -2.45, -22.03, 3.06, 2.23, 10.04, repro,
2007-06-20,1.63, -0.76, -25.83, 3.43, 2.52, 11.59, repro,
2007-06-21,-4.45, -1.74, -19.58, 6.42, 5.30, 21.83, repro,
2007-06-22,-0.68, 0.69, -16.37, 4.19, 3.38, 13.56, repro,
2007-06-23,-3.66, -1.38, -19.13, 5.54, 4.21, 17.19, repro,
2007-06-25,32.79, 73.64, -28.27, 147.87, 282.85, 314.85, repro,
2007-06-26,-0.07, -3.70, -26.49, 8.95, 5.72, 32.66, repro,
2007-06-27,0.53, -3.50, -25.10, 3.44, 2.57, 10.63, repro,
2007-06-28,1.94, -5.02, -24.64, 5.09, 3.93, 17.72, repro,
2007-06-29,-4.01, -0.32, -0.08, 6.30, 4.83, 21.88, repro,
2007-06-30,-7.62, 119.37, -163.46, 36.03, 11.99, 92.79, repro,
2007-07-01,-3.74, -11.18, 18.04, 10.52, 13.21, 58.08, repro,
2007-07-02,-3.82, -3.18, -52.59, 9.78, 7.32, 26.57, repro,
2007-07-12,1.09, -2.12, -15.57, 2.23, 1.62, 7.11, repro,
2007-07-18,0.73, -1.14, -14.84, 2.14, 1.55, 6.84, repro,
2007-07-30,0.63, -1.29, -6.11, 2.23, 1.65, 7.23, repro,
2007-08-25,0.51, 0.02, -11.00, 2.26, 1.63, 7.12, repro,
2007-08-26,0.20, -1.12, -3.54, 2.23, 1.63, 7.16, repro,
2007-08-27,-0.29, -0.88, -9.27, 2.24, 1.65, 7.27, repro,
2007-08-29,-9.82, 15.19, 22.70, 63.58, 57.79, 147.60, repro,
2007-10-21,-0.64, -2.41, -8.48, 2.24, 1.64, 7.11, repro,
2007-10-22,-0.26, -1.09, -11.08, 2.21, 1.68, 7.49, repro,
2007-11-28,1.57, -3.32, -8.30, 3.42, 2.67, 11.97, repro,
2007-11-29,1.19, -1.08, -12.16, 2.38, 1.73, 7.51, repro,
2007-12-04,-2.11, -1.56, -6.33, 2.46, 1.77, 7.91, repro,
2007-12-06,-0.18, -2.69, -8.33, 2.48, 1.84, 7.85, repro,
2007-12-07,1.45, -2.47, -9.14, 2.46, 1.78, 7.87, repro,
2007-12-08,0.35, -1.39, -10.31, 2.37, 1.75, 7.56, repro,
2007-12-09,0.73, -1.15, -10.42, 2.66, 1.94, 8.71, repro,
2007-12-10,-0.97, -2.34, -13.24, 4.84, 4.09, 16.65, repro,
2008-01-09,-1.13, -1.96, -7.45, 3.01, 2.04, 9.03, repro,
2008-02-12,4.67, -2.71, -11.78, 4.15, 2.90, 14.26, repro,
2008-04-23,-4.31, -1.86, -6.59, 5.84, 4.05, 16.75, repro,
2008-04-30,2.73, -1.97, -6.06, 5.51, 4.24, 18.11, repro,
2008-05-01,0.46, -4.45, -13.73, 3.38, 2.56, 10.97, repro,
2008-05-15,-1.21, -0.93, -15.06, 4.12, 2.94, 13.09, repro,
2008-05-16,0.16, -2.37, -19.72, 2.84, 2.07, 9.00, repro,
2008-06-20,2.85, -4.46, -13.27, 7.47, 4.87, 21.40, repro,
2008-06-21,0.41, -1.66, -26.73, 2.37, 1.70, 7.68, repro,
2008-06-23,-0.32, -2.48, -8.31, 3.21, 2.28, 10.33, repro,
2008-10-25,-0.65, -3.12, 1.93, 2.17, 1.54, 6.80, repro,
2008-10-26,0.76, -1.46, -10.91, 2.17, 1.54, 6.76, repro,
2008-10-27,0.69, -1.27, -16.63, 2.15, 1.53, 6.74, repro,
2008-10-28,1.03, -1.61, -16.26, 2.39, 1.64, 7.21, repro,
2008-10-29,-1.13, -2.73, -9.50, 2.38, 1.66, 7.30, repro,
2008-10-30,-0.69, -2.63, -10.85, 2.21, 1.57, 6.92, repro,
2008-10-31,0.05, -2.04, -11.43, 2.28, 1.67, 7.37, repro,
2008-11-01,-0.41, -1.53, -12.91, 2.15, 1.54, 6.74, repro,
2008-11-02,0.60, -3.04, -4.45, 2.17, 1.56, 6.83, repro,
2008-11-03,-2.10, -3.33, -0.22, 2.22, 1.63, 7.05, repro,
2008-11-04,1.17, -2.88, -5.44, 2.22, 1.61, 6.97, repro,
2008-11-05,-0.25, -2.68, -5.00, 2.19, 1.56, 6.83, repro,
2008-11-06,0.09, -1.45, -9.76, 2.19, 1.56, 6.87, repro,
2008-11-07,-0.41, -1.52, -5.53, 2.18, 1.56, 6.89, repro,
2008-11-08,-1.34, -1.74, -6.70, 2.20, 1.58, 6.99, repro,
2008-11-09,-0.87, -2.56, -0.51, 2.21, 1.59, 6.98, repro,
2008-11-10,-0.43, -2.41, -5.78, 2.22, 1.61, 6.98, repro,
2008-11-11,-1.26, -1.13, -3.05, 2.20, 1.58, 6.91, repro,
2008-11-12,0.86, -1.10, -6.45, 2.17, 1.56, 6.77, repro,
2008-11-21,-1.35, -2.21, -13.42, 2.38, 1.75, 7.75, repro,
2008-11-22,-1.76, -1.22, -7.88, 2.24, 1.61, 7.14, repro,
2008-11-23,-2.31, -1.12, -10.07, 2.29, 1.66, 7.26, repro,
2008-11-24,-1.70, -1.92, -17.74, 2.51, 1.75, 7.70, repro,
2008-11-25,-1.25, -2.26, -8.34, 2.19, 1.60, 6.91, repro,
2008-11-28,-0.48, -1.93, -5.78, 2.20, 1.61, 7.00, repro,
2008-11-29,-0.12, -1.64, -10.62, 2.31, 1.73, 7.57, repro,
2008-11-30,-1.72, -2.53, -8.17, 2.17, 1.57, 6.84, repro,
2008-12-01,-1.35, -2.53, 0.04, 2.15, 1.56, 6.80, repro,
2008-12-03,0.03, -2.54, -9.84, 2.22, 1.63, 7.05, repro,
2008-12-04,1.61, -2.48, -14.65, 2.26, 1.70, 7.36, repro,
2008-12-05,-0.46, -1.17, -9.41, 2.55, 1.86, 7.85, repro,
2008-12-08,2.22, -2.52, -3.23, 4.33, 3.33, 16.23, repro,
2008-12-19,-2.65, -2.03, -12.90, 2.25, 1.64, 7.16, repro,
2008-12-20,-2.79, -1.39, -19.04, 2.20, 1.55, 6.86, repro,
2008-12-21,-2.60, -1.11, -15.75, 2.18, 1.54, 6.78, repro,
2008-12-22,-3.13, -1.12, -11.91, 2.25, 1.58, 6.94, repro,
2008-12-23,-2.41, -1.78, -10.14, 2.20, 1.58, 6.87, repro,
2008-12-24,-3.47, -2.32, -11.19, 2.19, 1.56, 6.89, repro,
2008-12-25,-2.14, -1.58, -6.77, 2.17, 1.55, 6.80, repro,
2008-12-26,-2.17, -2.61, -5.94, 2.13, 1.53, 6.70, repro,
2008-12-27,-2.34, -2.83, -7.72, 2.17, 1.57, 6.85, repro,
2008-12-28,-3.49, -3.06, -13.11, 2.19, 1.54, 6.82, repro,
2008-12-29,-1.08, -3.64, -17.21, 2.16, 1.54, 6.78, repro,
2008-12-30,-1.58, -1.40, -21.50, 2.16, 1.54, 6.75, repro,
2008-12-31,-1.42, -0.78, -13.96, 2.14, 1.54, 6.74, repro,
2009-01-01,-2.92, -1.04, -8.74, 2.46, 1.76, 7.74, repro,
2009-01-02,0.20, -0.89, -7.96, 2.20, 1.55, 6.85, repro,
2009-01-03,0.54, -1.00, -21.09, 4.80, 3.41, 15.96, repro,
2009-01-04,-0.67, -2.56, -19.01, 2.15, 1.55, 6.77, repro,
2009-01-05,2.17, -1.47, 0.39, 4.22, 3.17, 14.39, repro,
2009-01-06,-0.47, -2.53, -2.85, 2.16, 1.56, 6.84, repro,
2009-01-07,0.15, -3.70, -4.15, 2.18, 1.56, 6.85, repro,
2009-01-08,-1.03, -1.36, -10.45, 2.21, 1.59, 7.02, repro,
2009-01-09,1.16, -3.64, -18.98, 2.26, 1.62, 7.16, repro,
2009-01-10,-0.19, -2.31, -15.99, 2.14, 1.56, 6.84, repro,
2009-01-11,1.02, -2.63, -24.42, 2.16, 1.57, 6.89, repro,
2009-01-12,0.19, -3.47, -26.13, 2.26, 1.66, 7.27, repro,
2009-01-13,-0.41, -2.63, -28.64, 2.22, 1.60, 7.10, repro,
2009-01-14,1.79, -2.14, -23.43, 2.24, 1.60, 7.10, repro,
2009-01-15,1.48, -1.92, -23.88, 2.19, 1.59, 7.00, repro,
2009-01-16,0.04, -1.94, -20.51, 2.19, 1.58, 6.98, repro,
2009-01-17,0.93, -2.74, -27.06, 2.27, 1.67, 7.25, repro,
2009-01-18,-0.04, -3.40, -24.53, 2.19, 1.58, 6.94, repro,
2009-01-19,0.48, -3.18, -22.77, 2.24, 1.60, 7.05, repro,
2009-01-20,1.10, -3.20, -20.92, 2.18, 1.56, 6.82, repro,
2009-01-21,0.34, -1.95, -16.36, 2.18, 1.57, 6.89, repro,
2009-01-22,0.10, -3.49, -17.62, 2.23, 1.60, 7.08, repro,
2009-01-23,1.25, -2.54, -26.63, 2.24, 1.62, 7.23, repro,
2009-01-24,0.66, -1.92, -26.92, 2.21, 1.59, 6.99, repro,
2009-01-25,2.11, -1.88, -22.00, 2.22, 1.60, 7.07, repro,
2009-01-26,0.44, -1.90, -19.06, 2.18, 1.57, 6.89, repro,
2009-01-27,-0.69, -2.35, -18.84, 2.16, 1.57, 6.92, repro,
2009-01-28,0.49, -1.67, -17.17, 2.14, 1.59, 6.92, repro,
2009-01-29,0.08, -3.03, -22.26, 2.13, 1.56, 6.79, repro,
2009-01-30,0.66, -2.97, -21.98, 2.13, 1.56, 6.76, repro,
2009-01-31,0.44, -3.68, -17.16, 2.14, 1.55, 6.78, repro,
2009-02-01,-0.44, -2.52, -17.21, 2.16, 1.57, 6.88, repro,
2009-02-02,0.17, -1.85, -23.91, 2.14, 1.56, 6.79, repro,
2009-02-03,1.27, -1.98, -30.22, 2.67, 1.97, 8.45, repro,
2009-02-04,-0.72, -1.76, -26.43, 2.13, 1.56, 6.78, repro,
2009-02-05,0.11, -2.62, -19.83, 2.13, 1.56, 6.75, repro,
2009-02-06,-0.46, -3.19, -14.32, 2.18, 1.59, 6.98, repro,
2009-02-07,-0.83, -2.04, -13.06, 2.19, 1.60, 7.04, repro,
2009-02-08,-0.36, -1.66, -19.55, 2.16, 1.59, 6.93, repro,
2009-02-09,-0.54, -2.36, -5.75, 2.12, 1.55, 6.75, repro,
2009-02-10,0.03, -3.40, -5.43, 2.13, 1.56, 6.80, repro,
2009-02-11,0.46, -4.08, -15.65, 2.18, 1.61, 7.00, repro,
2009-02-12,1.64, -2.56, -15.37, 2.20, 1.63, 7.10, repro,
2009-02-13,-0.20, -2.26, -19.07, 2.15, 1.58, 6.92, repro,
2009-02-14,0.29, -2.03, -20.04, 2.13, 1.57, 6.82, repro,
2009-02-15,1.13, -2.50, -15.85, 2.13, 1.57, 6.82, repro,
2009-02-16,-1.50, -2.48, -9.11, 2.14, 1.57, 6.84, repro,
2009-02-17,-0.49, -2.21, -3.42, 2.20, 1.60, 7.02, repro,
2009-02-18,-0.30, -2.82, -18.84, 2.22, 1.67, 7.36, repro,
2009-02-19,1.06, -3.89, -19.95, 2.17, 1.59, 6.99, repro,
2009-02-20,0.34, -1.86, -17.73, 2.14, 1.58, 6.90, repro,
2009-02-21,0.49, -3.00, -22.45, 2.14, 1.57, 6.89, repro,
2009-02-22,-0.70, -2.86, -23.32, 2.16, 1.58, 6.93, repro,
2009-02-23,0.27, -2.03, -22.22, 2.18, 1.60, 7.06, repro,
2009-02-24,-0.77, -3.02, -14.37, 2.22, 1.66, 7.34, repro,
2009-02-25,1.55, -3.69, -20.08, 57.60, 142.67, 331.40, repro,
2009-02-26,0.23, -1.61, -17.39, 2.20, 1.65, 7.24, repro,
2009-02-27,0.70, -2.59, -20.91, 2.41, 1.81, 8.04, repro,
2009-02-28,0.18, -2.16, -18.95, 2.17, 1.59, 7.05, repro,
2009-03-01,-1.67, -1.38, -16.52, 2.22, 1.64, 7.31, repro,
2009-03-02,-0.03, -1.70, -16.22, 2.19, 1.64, 7.25, repro,
2009-03-03,-0.44, -2.36, -18.30, 2.27, 1.69, 7.61, repro,
2009-03-04,0.44, -1.97, -12.96, 2.14, 1.59, 7.02, repro,
2009-03-05,-1.18, -3.56, -4.54, 2.18, 1.62, 7.21, repro,
2009-03-06,0.76, -2.78, -4.56, 2.30, 1.76, 7.66, repro,
2009-03-07,-1.55, -1.81, -2.68, 2.18, 1.60, 7.16, repro,
2009-03-08,0.70, -3.39, -7.10, 2.21, 1.67, 7.56, repro,
2009-03-09,2.09, -2.46, -12.11, 2.33, 1.79, 7.82, repro,
2009-03-10,0.36, -2.19, -17.12, 2.17, 1.61, 7.11, repro,
2009-03-11,1.05, -2.24, -17.39, 2.26, 1.76, 7.86, repro,
2009-03-12,-0.36, -1.94, -14.98, 2.16, 1.59, 7.04, repro,
2009-03-13,-1.02, -2.07, -15.74, 2.21, 1.65, 7.33, repro,
2009-03-14,0.14, -3.20, -14.90, 2.25, 1.71, 7.52, repro,
2009-03-15,0.21, -1.43, -3.01, 2.14, 1.57, 6.95, repro,
2009-03-16,-1.45, -1.53, -11.89, 2.18, 1.61, 7.18, repro,
2009-03-17,-0.98, -2.93, -10.01, 2.16, 1.57, 6.95, repro,
2009-03-18,0.99, -2.40, -17.39, 2.16, 1.56, 6.97, repro,
2009-03-19,-0.61, -2.36, -16.09, 2.19, 1.60, 7.03, repro,
2009-03-20,0.13, -2.31, -10.92, 2.21, 1.65, 7.39, repro,
2009-03-21,0.38, -2.53, -13.55, 2.14, 1.57, 6.92, repro,
2009-03-22,-1.78, -1.92, -3.90, 2.15, 1.57, 6.95, repro,
2009-03-23,1.16, -2.21, -11.97, 2.15, 1.56, 6.88, repro,
2009-03-24,0.64, -2.40, -8.26, 2.20, 1.62, 7.10, repro,
2009-03-25,0.01, -3.00, -13.34, 2.15, 1.54, 6.85, repro,
2009-03-26,0.28, -2.45, -11.39, 2.14, 1.53, 6.78, repro,
2009-03-27,-1.00, -1.82, -9.83, 2.16, 1.54, 6.87, repro,
2009-03-28,0.55, -2.00, -11.57, 2.18, 1.58, 7.00, repro,
2009-03-29,0.71, -2.61, -8.14, 2.17, 1.58, 6.98, repro,
2009-03-30,1.37, -2.35, -11.80, 2.17, 1.54, 6.87, repro,
2009-03-31,-0.12, -2.99, -12.03, 2.15, 1.53, 6.77, repro,
2009-04-01,-0.92, -3.24, -7.16, 2.19, 1.60, 7.00, repro,
2009-04-02,-0.82, -2.78, -10.72, 2.24, 1.67, 7.28, repro,
2009-04-03,1.63, -2.30, -5.03, 2.23, 1.65, 7.37, repro,
2009-04-04,1.66, -2.90, -16.58, 2.21, 1.57, 6.99, repro,
2009-04-05,0.85, -2.99, -24.83, 2.17, 1.57, 6.94, repro,
2009-04-06,-0.46, -3.07, -19.82, 2.24, 1.63, 7.11, repro,
2009-04-07,-2.09, -2.37, -14.93, 2.20, 1.60, 7.00, repro,
2009-04-08,0.00, -2.97, -15.77, 2.21, 1.60, 7.01, repro,
2009-04-09,-0.57, -2.20, -6.20, 2.24, 1.60, 7.13, repro,
2009-04-10,-0.26, -2.49, -19.18, 2.25, 1.62, 7.13, repro,
2009-04-11,-0.06, -2.53, -17.68, 2.26, 1.62, 7.14, repro,
2009-04-12,-1.77, -3.17, -20.55, 2.21, 1.58, 7.01, repro,
2009-04-13,-1.61, -2.10, -15.37, 2.27, 1.65, 7.28, repro,
2009-04-14,0.05, -2.52, -16.02, 2.15, 1.54, 6.85, repro,